Location: Domont
(49.0278°N, 2.3264°E)
Time: 12:13:41
(UTC+00:00)

H-2A R/B - Visible Passes

Search period start: 29 May 2022 00:00
Search period end: 08 June 2022 00:00
Orbit: 575 x 654 km, 98.5° (Epoch: 28 May)

Date Brightness Start Highest point End Pass type
(mag) Time Alt. Az. Time Alt. Az. Time Alt. Az.
29 May 4.8 21:29:17 10° NNW 21:32:01 18° WNW 21:34:46 10° WSW visible
30 May 5.0 21:45:28 10° NNW 21:47:24 13° WNW 21:49:19 10° W visible
31 May 2.3 20:23:27 10° N 20:27:33 71° WNW 20:31:40 10° SSW visible
01 Jun 3.0 20:39:04 10° N 20:43:03 49° WNW 20:47:03 10° SW visible
02 Jun 3.7 20:54:45 10° N 20:58:30 35° WNW 21:02:17 10° SW visible
03 Jun 4.3 21:10:31 10° N 21:13:56 26° WNW 21:17:23 10° WSW visible
04 Jun 4.8 21:26:23 10° NNW 21:29:20 19° WNW 21:32:19 10° WSW visible
05 Jun 4.9 21:42:25 10° NNW 21:44:42 15° WNW 21:47:00 10° W visible
06 Jun 5.3 21:58:59 10° NW 22:00:02 11° NW 22:01:05 10° WNW visible
07 Jun 2.8 20:36:13 10° N 20:40:17 55° WNW 20:44:24 10° SSW visible
